Location: Newark
(40.9833°N, 0.0333°W)
Time: 03:20:42
(UTC+00:00)

Transit 2A Rocket - Pass Details

Date: 27 October 2020
Orbit: 588 x 914 km, 66.7° (Epoch: 26 November)

Event Time Altitude Azimuth Distance (km) Brightness Sun altitude
Rises 18:28:55 0° 332° (NNW) 3,282 8.6 -17.0°
Reaches altitude 10° 18:31:28 10° 334° (NNW) 2,296 7.8 -17.5°
Maximum altitude 18:36:40 69° 58° (ENE) 759 4.7 -18.5°
Enters shadow 18:39:16 27° 136° (SE) 1,311 5.8 -18.9°
Drops below altitude 10° 18:41:21 10° 142° (SE) 2,074 - -19.3°
Sets 18:43:33 0° 145° (SE) 2,939 - -19.8°
